sat.trackr.live / text

‹ back to catalog

STARLINK-4791

NORAD 53936 · 2022-119BC

PAYLOAD ACTIVE UNKNOWN

§ Identity

Operator
Country
US
Launch date
2022-09-24
Launch site
AFETR
Launch vehicle
Mass (kg)
RCS (m²)

Purposes: comms

External: N2YO · Heavens-Above · Gunter

§ Orbital elements

Epoch: 2026-05-25T03:52:09.279264Z

Period
95.44 min
Inclination
53.2129°
Eccentricity
0.0001388
Mean motion
15.08835442 rev/d
Perigee alt
538.8 km
Apogee alt
540.7 km
Semi-major
6,917.9 km
B*
2.7987e-5
RAAN
315.5600°
Arg perigee
93.1674°
Mean anomaly
266.9477°
Rev number
20,359

§ Raw data

STARLINK-47911 53936U 22119BC  26145.16121851  .00000157  00000+0  27987-4 0  99932 53936  53.2129 315.5600 0001388  93.1674 266.9477 15.08835442203590

JSON: /api/v1/satellites/53936 · /tle

For live sub-satellite position, see the globe view (requires WebGL).

§ Visibility from observer

Set your observer location to see the next 7 days of passes ≥ 10°. The values pass through the URL so the page stays shareable.

No JS? Fill the form by hand. The geolocation button needs JavaScript.